This demonstration page uses our WeatherBlox Daily Observations layout. Learn more.

Left ArrowRight Arrow

Hourly Observations for January 24, 2022

Temp ( °F °C ) Dew Point ( °F °C ) Humidity (%) Winds ( mph kmh ) Pressure ( in mb ) Visibility ( mi km ) Precip ( " mm )
12:15 am 00:15 Cloudy 43 5.9 24 -4.2 49 49 W 10 17 29.82 1010 10 16 0.00 0.00
12:35 am 00:35 Cloudy 45 7.4 24 -4.2 44 44 WNW 13 20 29.81 1009 10 16 0.00 0.00
12:55 am 00:55 Cloudy 44 6.5 24 -4.2 47 47 WNW 12 19 29.81 1010 10 16 0.00 0.00
1:15 am 01:15 Mostly Cloudy 42 5.8 24 -4.5 48 48 WNW 13 20 29.81 1009 10 16 0.00 0.00
1:35 am 01:35 Partly Cloudy 42 5.3 24 -4.5 50 50 W 12 19 29.80 1009 10 16 0.00 0.00
1:55 am 01:55 Partly Cloudy 42 5.6 24 -4.2 50 50 WNW 13 20 29.80 1009 10 16 0.00 0.00
2:15 am 02:15 Cloudy 42 5.5 25 -4 51 51 WNW 10 17 29.80 1009 10 16 0.00 0.00
2:35 am 02:35 Cloudy 39 4 24 -4.3 55 55 NW 7 11 29.82 1010 10 16 0.00 0.00
2:55 am 02:55 Cloudy 40 4.2 25 -4 56 56 WNW 10 17 29.82 1010 10 16 0.00 0.00
3:15 am 03:15 Cloudy 40 4.5 25 -3.8 55 55 WNW 12 19 29.81 1010 10 16 0.00 0.00
3:35 am 03:35 Mostly Cloudy 40 4.5 25 -3.7 56 56 WNW 10 17 29.82 1010 10 16 0.00 0.00
3:55 am 03:55 Partly Cloudy 40 4.5 25 -3.7 56 56 NW 12 19 29.81 1010 10 16 0.00 0.00
4:15 am 04:15 Clear 40 4.3 26 -3.6 57 57 WNW 14 22 29.81 1010 10 16 0.00 0.00
4:35 am 04:35 Clear 38 3.5 25 -3.7 60 60 WNW 13 20 29.82 1010 10 16 0.00 0.00
4:55 am 04:55 Clear 35 1.9 25 -4.1 65 65 WNW 10 17 29.85 1011 10 16 0.00 0.00
5:15 am 05:15 Clear 34 1 24 -4.2 69 69 WNW 12 19 29.86 1011 10 16 0.00 0.00
5:35 am 05:35 Clear 34 1 24 -4.2 69 69 WNW 13 20 29.87 1011 10 16 0.00 0.00
5:55 am 05:55 Clear 35 1.4 25 -4 68 68 W 12 19 29.86 1011 10 16 0.00 0.00
6:15 am 06:15 Clear 33 0.5 24 -4.2 71 71 WNW 13 20 29.87 1012 10 16 0.00 0.00
6:35 am 06:35 Clear 33 0.7 25 -4.1 71 71 W 10 17 29.88 1012 10 16 0.00 0.00
6:55 am 06:55 Clear 33 0.8 24 -4.2 70 70 WNW 12 19 29.89 1012 10 16 0.00 0.00
7:15 am 07:15 Clear 31 -0.8 23 -5 74 74 WNW 12 19 29.92 1013 10 16 0.00 0.00
7:35 am 07:35 Clear 29 -1.8 22 -5.4 77 77 WNW 7 11 29.93 1014 10 16 0.00 0.00
7:55 am 07:55 Clear 28 -2.2 22 -5.6 78 78 WNW 10 17 29.95 1014 10 16 0.00 0.00
8:15 am 08:15 Sunny 28 -2.5 22 -5.7 79 79 WNW 9 15 29.95 1014 10 16 0.00 0.00
8:35 am 08:35 Sunny 31 -0.4 24 -4.5 74 74 W 9 15 29.94 1014 10 16 0.00 0.00
8:55 am 08:55 Sunny 34 1.2 25 -4 69 69 WNW 7 11 29.93 1014 10 16 0.00 0.00
9:15 am 09:15 Sunny 37 2.6 26 -3.5 64 64 W 6 9 29.92 1013 10 16 0.00 0.00
9:35 am 09:35 Sunny 39 3.9 26 -3.5 59 59 W 8 13 29.93 1013 10 16 0.00 0.00
9:55 am 09:55 Sunny 41 4.9 26 -3.3 56 56 NW 8 13 29.93 1014 10 16 0.00 0.00
10:15 am 10:15 Sunny 44 6.8 27 -2.7 51 51 N 17 28 29.92 1013 10 16 0.00 0.00
10:35 am 10:35 Sunny 45 7.3 27 -3 48 48 NNW 22 35 29.93 1013 10 16 0.00 0.00
10:55 am 10:55 Sunny 46 7.6 27 -2.7 48 48 N 21 33 29.93 1014 10 16 0.00 0.00
11:15 am 11:15 Sunny 46 7.8 27 -2.9 47 47 NNW 23 37 29.94 1014 10 16 0.00 0.00
11:35 am 11:35 Mostly Cloudy 45 7.3 27 -2.9 49 49 N 22 35 29.95 1014 10 16 0.00 0.00
11:55 am 11:55 Partly Cloudy 47 8.4 27 -2.7 46 46 N 17 28 29.93 1013 10 16 0.00 0.00
12:15 pm 12:15 Mostly Cloudy 47 8.5 27 -2.8 45 45 N 20 31 29.93 1013 10 16 0.00 0.00
12:35 pm 12:35 Cloudy 47 8.1 26 -3.2 45 45 N 21 33 29.93 1014 10 16 0.00 0.00
12:55 pm 12:55 Cloudy 45 7.1 27 -3 49 49 N 15 24 29.95 1014 10 16 0.00 0.00
1:15 pm 13:15 Cloudy 45 7 27 -2.8 50 50 N 14 22 29.95 1014 10 16 0.00 0.00
1:35 pm 13:35 Cloudy 45 7.3 28 -2.5 50 50 N 14 22 29.94 1014 10 16 0.00 0.00
1:55 pm 13:55 Cloudy 46 7.8 28 -2.3 49 49 N 15 24 29.93 1014 10 16 0.00 0.00
2:15 pm 14:15 Cloudy 45 7.2 27 -2.7 50 50 N 16 26 29.94 1014 10 16 0.00 0.00
2:35 pm 14:35 Cloudy 45 7.1 26 -3.1 49 49 N 15 24 29.94 1014 10 16 0.00 0.00
2:55 pm 14:55 Cloudy 45 7.2 27 -3 49 49 N 14 22 29.94 1014 10 16 0.00 0.00
3:15 pm 15:15 Cloudy 44 6.8 27 -2.6 52 52 NNE 10 17 29.94 1014 10 16 0.00 0.00
3:35 pm 15:35 Cloudy 44 6.8 27 -2.6 52 52 N 10 17 29.95 1014 10 16 0.00 0.00
3:55 pm 15:55 Cloudy 44 6.5 27 -2.6 53 53 NNE 13 20 29.95 1014 10 16 0.00 0.00
4:15 pm 16:15 Cloudy 42 5.8 28 -2 58 58 NE 15 24 29.98 1015 10 16 0.00 0.00
4:35 pm 16:35 Cloudy 40 4.6 29 -1.7 64 64 NE 15 24 30.00 1016 10 16 0.00 0.00
4:55 pm 16:55 Cloudy 38 3.5 28 -2 68 68 NE 14 22 30.03 1017 10 16 0.00 0.00
5:15 pm 17:15 Cloudy 37 2.5 28 -2.3 71 71 NNE 12 19 30.04 1017 10 16 0.00 0.00
5:35 pm 17:35 Cloudy 36 2.1 27 -2.6 71 71 NE 10 17 30.07 1018 10 16 0.00 0.00
5:55 pm 17:55 Cloudy 35 1.6 27 -2.6 74 74 NE 10 17 30.07 1018 10 16 0.00 0.00
6:15 pm 18:15 Cloudy 33 0.7 26 -3.1 76 76 NE 13 20 30.09 1019 10 16 0.00 0.00
6:35 pm 18:35 Cloudy 32 0 25 -4.1 74 74 ENE 12 19 30.10 1019 10 16 0.00 0.00
6:55 pm 18:55 Cloudy 30 -0.9 23 -4.9 75 75 NE 13 20 30.13 1020 10 16 0.00 0.00
7:15 pm 19:15 Cloudy 29 -1.5 23 -5.1 77 77 NE 14 22 30.14 1021 10 16 0.00 0.00
7:35 pm 19:35 Cloudy 29 -1.9 22 -5.5 77 77 ENE 12 19 30.15 1021 10 16 0.00 0.00
7:55 pm 19:55 Cloudy 28 -2.1 21 -5.9 76 76 ENE 10 17 30.16 1021 10 16 0.00 0.00
8:15 pm 20:15 Cloudy 28 -2.5 21 -6.2 76 76 E 10 17 30.16 1021 10 16 0.00 0.00
8:35 pm 20:35 Cloudy 27 -3 19 -7 74 74 NE 9 15 30.19 1022 10 16 0.00 0.00
8:55 pm 20:55 Cloudy 26 -3.2 19 -7.1 75 75 E 9 15 30.19 1022 10 16 0.00 0.00
9:15 pm 21:15 Cloudy 26 -3.5 19 -7.3 75 75 ENE 9 15 30.19 1022 10 16 0.00 0.00
9:35 pm 21:35 Cloudy 25 -3.7 18 -7.6 75 75 ENE 9 15 30.20 1023 10 16 0.00 0.00
9:55 pm 21:55 Cloudy 25 -4 18 -7.7 76 76 ENE 7 11 30.22 1023 10 16 0.00 0.00
10:15 pm 22:15 Cloudy 25 -4.1 18 -8 75 75 ENE 9 15 30.24 1024 10 16 0.00 0.00
10:35 pm 22:35 Cloudy 24 -4.5 17 -8.2 76 76 ENE 8 13 30.25 1024 10 16 0.00 0.00
10:55 pm 22:55 Cloudy 23 -5.1 15 -9.3 73 73 E 8 13 30.26 1025 10 16 0.00 0.00
11:15 pm 23:15 Cloudy 22 -5.5 14 -9.8 72 72 E 8 13 30.27 1025 10 16 0.00 0.00
11:35 pm 23:35 Cloudy 22 -5.6 13 -10.4 69 69 E 8 13 30.29 1026 10 16 0.00 0.00
11:55 pm 23:55 Mostly Cloudy 21 -6.2 13 -10.6 71 71 E 6 9 30.30 1026 10 16 0.00 0.00

Powered by AerisWeather